Overview Statistics Trail Chart Weather Telemetry Raw packets
 

This is the latest recevied weather packets stored in our database for station/object HG5CJW-10. If no packets are shown the sender has not sent any weather packets the latest 10 day(s).

<< 20 21 22 23 24 25 26 >>
Time Temp. Humidity Pressure Rain* Wind** Luminosity Snow
1788127313 23.89° C 49% 1036.2 hPa - - - -
1788126413 23.89° C 49% 1036.2 hPa - - - -
1788125513 24.44° C 49% 1036.2 hPa - - - -
1788124613 24.44° C 48% 1036.1 hPa - - - -
1788123712 25° C 48% 1036 hPa - - - -
1788122812 25° C 48% 1036.1 hPa - - - -
1788121912 25° C 47% 1036 hPa - - - -
1788121012 25° C 47% 1035.7 hPa - - - -
1788120107 25.56° C 47% 1036 hPa - - - -
1788119207 26.11° C 46% 1035.8 hPa - - - -
1788118307 26.11° C 46% 1035.9 hPa - - - -
1788117407 26.67° C 46% 1035.8 hPa - - - -
1788116507 27.22° C 45% 1035.7 hPa - - - -
1788114706 27.78° C 44% 1035.6 hPa - - - -
1788112906 28.33° C 43% 1035.5 hPa - - - -
1788111106 28.89° C 43% 1035.1 hPa - - - -
1788110206 28.89° C 42% 1035.1 hPa - - - -
1788108406 28.89° C 42% 1035 hPa - - - -
1788107506 28.89° C 42% 1034.6 hPa - - - -
1788106600 29.44° C 42% 1034.9 hPa - - - -
1788105700 28.89° C 42% 1035 hPa - - - -
1788104800 28.89° C 42% 1035 hPa - - - -
1788103900 28.89° C 41% 1034.9 hPa - - - -
1788103000 28.89° C 41% 1034.9 hPa - - - -
1788102100 28.89° C 41% 1034.8 hPa - - - -

* Rain since midnight (hover to see other rain measurements)
** Current wind speed in m/s (hover to see current wind gust speed)